﻿Дата;Google;AdRiver
2014-03-26;2;0
2014-03-25;15;0
2014-03-24;14;0
2014-03-23;8;0
2014-03-22;22;0
2014-03-21;10;0
2014-03-19;14;0
2014-03-18;1;0
2014-03-17;8;0
2014-03-16;16;0
2014-03-15;13;0
2014-03-14;9;0
2014-03-13;17;0
2014-03-12;10;0
2014-03-11;10;0
2014-03-10;12;0
2014-03-09;30;0
2014-03-08;33;0
2014-03-07;14;0
2014-03-06;27;0
2014-03-05;31;0
2014-03-04;36;0
2014-03-03;29;0
2014-03-02;41;0
2014-03-01;34;0
2014-02-28;35;1
2014-02-27;17;0
2014-02-26;15;0
2014-02-25;17;0
2014-02-19;7;0
2014-02-18;26;0
2014-02-17;6;0
2014-02-16;16;0
2014-02-15;21;0
2014-02-14;6;0
2014-02-13;12;0
2014-02-12;7;0
2014-02-11;7;0
2014-02-04;21;0
2014-02-03;25;0
2014-02-02;24;0
2014-02-01;20;0
2014-01-31;18;1
2014-01-30;26;0
2014-01-29;25;0
2014-01-28;16;0
2014-01-27;6;0
2014-01-26;17;1
2014-01-25;19;0
2014-01-24;9;0
2014-01-23;7;0
2014-01-22;15;0
2014-01-21;11;0
2014-01-20;7;0
2014-01-19;17;0
2014-01-18;18;0
2014-01-17;14;0
2014-01-16;10;0
2014-01-15;9;0
2014-01-14;6;0
2014-01-13;8;0
2014-01-12;16;0
2014-01-11;14;0
2014-01-10;7;0
2014-01-09;4;0
2014-01-08;2;0
2014-01-06;1;0
2014-01-04;1;0
2014-01-02;2;0
2013-12-26;11;0
2013-12-25;14;0
2013-12-24;5;0
2013-12-23;10;0
2013-12-22;13;0
2013-12-21;11;0
2013-12-20;12;0
2013-12-19;7;0
2013-12-18;12;0
2013-12-17;4;0
2013-12-16;4;0
2013-12-15;5;0
2013-12-14;16;0
2013-12-13;7;0
2013-12-12;8;0
2013-12-11;14;0
2013-12-10;10;0
2013-12-09;3;0
2013-12-08;13;0
2013-12-07;15;0
2013-12-06;14;0
2013-12-05;16;1
2013-12-04;10;0
2013-12-03;11;0
2013-12-02;10;0
2013-12-01;18;0
2013-11-30;19;0
2013-11-29;10;0
2013-11-28;19;0
2013-11-27;16;0
2013-11-26;21;1
2013-11-25;23;0
2013-11-24;23;0
2013-11-23;24;0
2013-11-22;18;0
2013-11-21;27;0
2013-11-20;26;0
2013-11-19;17;0
2013-11-18;26;0
2013-11-17;25;0
2013-11-16;24;0
2013-11-15;19;0
2013-11-14;18;0
2013-11-13;24;0
2013-11-12;18;0
2013-11-11;10;0
2013-11-10;15;0
2013-11-09;15;0
2013-11-08;12;0
2013-11-07;15;0
2013-11-06;8;0
2013-11-05;13;0
2013-11-04;3;0
2013-11-03;5;0
2013-11-02;12;0
2013-11-01;7;0
2013-10-31;6;0
2013-10-30;2;0
2013-10-29;7;0
2013-10-28;1;0
2013-10-27;2;0
2013-10-26;3;0
2013-10-25;1;0
2013-10-24;3;0
2013-10-23;1;0
2013-10-22;2;0
2013-10-21;1;0
2013-10-20;6;0
2013-10-19;3;0
2013-10-18;4;0
2013-10-17;4;0
2013-10-16;4;0
2013-10-15;2;0
2013-10-14;3;0
2013-10-13;2;0
2013-10-12;5;0
2013-10-11;2;0
2013-10-10;3;0
2013-10-09;8;0
2013-10-08;5;0
2013-10-07;5;0
2013-10-06;1;0
2013-10-05;1;0
2013-10-04;2;0
2013-10-03;4;0
2013-10-02;3;0
2013-10-01;3;0
2013-09-30;17;0
2013-09-29;15;0
2013-09-28;16;0
2013-09-27;7;0
2013-09-26;11;0
2013-09-25;6;0
2013-09-24;11;0
2013-09-23;8;0
2013-09-22;13;0
2013-09-21;8;0
2013-09-20;8;0
2013-09-19;8;0
2013-09-18;12;0
2013-09-17;6;0
2013-09-16;8;0
2013-09-15;17;0
2013-09-14;14;0
2013-09-13;4;0
2013-09-12;2;0
2013-09-11;4;0
2013-09-10;5;0
2013-09-09;5;0
2013-09-08;5;0
2013-09-07;5;0
2013-09-06;2;0
2013-09-05;4;0
2013-09-04;5;0
2013-09-03;2;0
2013-09-01;4;0
2013-08-30;2;0
2013-08-29;3;0
2013-08-28;3;0
2013-08-27;2;0
2013-08-26;3;0
2013-08-25;6;0
2013-08-24;1;0
2013-08-23;5;0
2013-08-22;3;0
2013-08-21;3;0
2013-08-20;3;0
2013-08-19;2;0
2013-08-18;3;0
2013-08-17;2;0
2013-08-16;5;0
2013-08-14;2;0
2013-08-13;3;0
2013-08-12;1;0
2013-08-11;3;0
2013-08-10;9;0
2013-08-09;3;0
2013-08-08;3;0
2013-08-07;4;0
2013-08-06;9;0
2013-08-05;6;0
2013-08-04;12;0
2013-08-03;7;0
2013-08-02;12;0
2013-08-01;8;0
2013-07-31;3;0
2013-07-30;5;0
2013-07-29;6;0
2013-07-28;11;0
2013-07-27;7;0
2013-07-26;4;0
2013-07-25;5;0
2013-07-24;6;0
2013-07-23;3;0
2013-07-22;1;0
2013-07-21;2;0
2013-07-20;1;0
2013-07-18;1;0
2013-07-17;1;0
2013-07-15;3;0
2013-07-14;8;0
2013-07-13;9;0
2013-07-12;2;0
2013-07-11;7;0
2013-07-10;1;0
2013-07-09;1;0
2013-07-08;1;0
2013-07-07;5;0
2013-07-04;2;0
2013-07-02;11;0
2013-07-01;10;0
2013-06-29;10;0
2013-06-28;12;0
2013-06-27;4;0
2013-06-26;7;0
2013-06-25;5;0
2013-06-24;4;0
2013-06-23;7;0
2013-06-22;1;0
2013-06-21;4;0
2013-06-20;8;0
2013-06-19;5;0
2013-06-09;8;0
2013-06-08;9;0
2013-06-07;1;0
2013-06-06;3;0
2013-06-05;3;0
2013-06-04;1;0
2013-06-03;4;0
2013-06-02;7;0
2013-06-01;7;0
2013-05-31;7;0
2013-05-30;4;0
2013-05-29;8;0
2013-05-28;3;0
2013-05-27;5;0
2013-05-26;1;0
2013-05-03;5;0
2013-04-30;5;0
2013-04-29;11;0
2013-04-28;10;0
2013-04-27;6;0
2013-04-26;1;0
2013-04-25;6;0
2013-04-24;2;0
2013-04-23;6;0
2013-04-22;6;0
2013-04-21;17;0
2013-04-20;7;0
2013-04-19;6;0
2013-04-18;15;0
2013-04-17;13;0
2013-04-16;9;0
2013-04-15;7;0
2013-04-14;13;0
2013-04-13;1;0
2013-03-21;7;0
2013-03-20;10;0
2013-03-19;10;0
2013-03-18;7;0
2013-03-17;13;0
2013-03-16;10;0
2013-03-15;18;0
2013-03-14;8;0
2013-03-13;14;0
2013-03-12;14;0
2013-03-11;6;0
2013-03-10;12;0
2013-03-09;6;0
2013-03-08;4;0
2013-03-07;2;0
2013-03-06;4;0
